Regional Weather Roundup
Issued by NWS Upton, NY

Current Version | Previous Version | Text Only | Print | Product List | Glossary On
Versions: 1 2 3 4 5 6 7 8 9 10 11 12 13 14 15 16 17 18 19 20 21 22 23 24 25 26 27 28 29 30 31 32 33 34 35 36 37 38 39 40 41 42 43 44 45 46 47 48 49 50
000
ASUS41 KOKX 260205
RWROKX

REGIONAL WEATHER ROUNDUP
NATIONAL WEATHER SERVICE NEW YORK NY
900 PM EST TUE NOV 25 2014

NOTE: "FAIR" INDICATES FEW OR NO CLOUDS BELOW 12,000 FEET WITH NO
SIGNIFICANT WEATHER AND/OR OBSTRUCTIONS TO VISIBILITY.

NYZ071-072-176-178-NJZ106-104-260300-
NEW YORK CITY METRO AREA


CITY           SKY/WX    TMP DP  RH WIND       PRES   REMARKS
CENTRAL PARK   MOCLDY    52  29  41 VRB5      30.14R
LAGUARDIA APRT CLOUDY    52  28  39 W10       30.12R
KENNEDY INTL   CLOUDY    48  35  60 SW7       30.13R
NEWARK/LIBERTY CLOUDY    49  31  49 SW7       30.12R
BRNX BOT. GARD   N/A    N/A N/A N/A S3        30.13S
TETERBORO      MOCLDY    48  30  49 SW6       30.11R
$$

NYZ177-179-078>081-260300-
LONG ISLAND NEW YORK

CITY           SKY/WX    TMP DP  RH WIND       PRES   REMARKS
FARMINGDALE    NOT AVBL
ISLIP          CLOUDY    47  34  60 SW6       30.11R
SHIRLEY        CLOUDY    47  35  63 W5        30.12R
WESTHAMPTON    CLOUDY    42  37  82 W3        30.12R
MONTAUK POINT    N/A     52  33  48 SW5       30.11R
$$

NYZ052-065-067-260300-
HUDSON VALLEY

CITY           SKY/WX    TMP DP  RH WIND       PRES   REMARKS
WHITE PLAINS   MOCLDY    47  28  47 CALM      30.09R
NEWBURGH       CLEAR     43  28  56 CALM      30.10R
MONTGOMERY     PTCLDY    37  27  67 SW5       30.09R WCI  33
POUGHKEEPSIE   MOCLDY    38  30  73 CALM      30.09R
ALBANY         MOCLDY    43  27  53 NW14      30.09R
$$

NJZ001-105-106-008-010-013-015-019>022-104-260300-
NEW JERSEY

CITY           SKY/WX    TMP DP  RH WIND       PRES   REMARKS
NEWARK/LIBERTY CLOUDY    49  31  49 SW7       30.12R
TETERBORO      MOCLDY    48  30  49 SW6       30.11R
CALDWELL       MOCLDY    44  29  55 S3        30.11R
MORRISTOWN     MOCLDY    39  32  75 CALM      30.12R
SOMERVILLE     PTCLDY    36  31  82 CALM      30.11R
SUSSEX         PTCLDY    35  29  78 CALM      30.10R
ANDOVER          N/A     35  31  85 CALM      30.11R
TRENTON        MOCLDY    44  30  57 NW3       30.12R
MILLVILLE      CLOUDY    45  39  79 CALM      30.13S
ATLANTIC CITY  CLOUDY    47  35  63 CALM      30.13S
WRIGHTSTOWN    CLOUDY    45  34  65 SW2       30.11R
TOMS RIVER     CLOUDY    43  37  81 CALM      30.13S
BELMAR         CLOUDY    46  30  53 CALM      30.12S
$$

PAZ047>061-062-071-260300-
EASTERN PENNSYLVANIA

CITY           SKY/WX    TMP DP  RH WIND       PRES   REMARKS
PHILADELPHIA   MOCLDY    49  32  52 SW6       30.14R
ALLENTOWN      PTCLDY    40  27  59 CALM      30.12R
SCRANTON       PTCLDY    43  27  53 SW6       30.10R
$$

CTZ002-004>006-009-010-012-RIZ004-006-007-MAZ004-011-015-260300-
SOUTHERN NEW ENGLAND
 IN CT

CITY           SKY/WX    TMP DP  RH WIND       PRES   REMARKS
BRADLEY INTL   MOCLDY    47  27  45 SW6       30.06R
HARTFORD       MOCLDY    41  33  73 S6        30.08R
DANBURY        MOCLDY    35  29  78 CALM      30.10R
WTRBRY/OXFORD  MOCLDY    43  25  49 CALM      30.10R
BRIDGEPORT     MOCLDY    47  34  60 W5        30.10R
MERIDEN        MOCLDY    37  31  78 CALM      30.10R
NEW HAVEN      MOCLDY    50  34  54 CALM      30.10R
CHESTER        FAIR      46  30  53 W5        30.10R
GROTON         CLOUDY    50  34  54 W8        30.09R
WILLIMANTIC    MOCLDY    40  31  70 CALM      30.08R

 IN RI

CITY           SKY/WX    TMP DP  RH WIND       PRES   REMARKS
PROVIDENCE     CLOUDY    48  30  49 SW6       30.07R
BLOCK ISLAND   CLOUDY    52  34  50 W9        30.08S
WESTERLY       CLOUDY    50  35  56 W3        30.09R

 IN MA

CITY           SKY/WX    TMP DP  RH WIND       PRES   REMARKS
BOSTON         CLOUDY    51  28  41 W9        30.05R
WORCESTER      PTCLDY    41  25  53 W6        30.04R
WESTFIELD      MOCLDY    35  30  82 S3        30.06R
PROVINCETOWN   CLOUDY    52  34  50 W9        30.07R
NANTUCKET      CLOUDY    53  42  66 W12       30.08R
$$

ANZ330-335-338-340-345-350-353-355-260300-
COASTAL MARINE OBSERVATIONS


STATION/POSITION TIME  SKY/WX   TEMP    WIND        PRES    VSBY  WAVE
                                AIR SEA DIR/SP/G                  HT/PER
                 (UTC)          (F)     (DEG/KT/KT) (MB)    (MI)  (FT/S)
NY HARB ENTRANCE 0200            53 54  260/ 12/ 14 1020.5          4/10
4S FIRE IS       0200               53                N/A           5/ 9
20S FIRE ISLAND  0200            54 55  280/ 14/ 16 1019.3          5/10
23SW MTP         0200                                 N/A           6/ 9
HUDSON CANYON    0200            55 60  290/  8/ 12 1019.3          6/ 9
EXECUTION ROCKS  0200            51 48  250/  8/ 10   N/A
WESTERN LI SOUND 0200            51     250/  8/ 10   N/A           0
CENTRAL LI SOUND 0100            51 50  220/  8/ 10   N/A           1/ 3
EASTERN LI SOUND 0100            52 53  260/ 12/ 16   N/A
ROBBINS REEF     0100            50     250/  9/ 10 1018.5
$$


>>>>>>>>>>>>>>>>>>>>>>>>>>>> KEY <<<<<<<<<<<<<<<<<<<<<<<<<<<
>                                                          <
>     SKY/WX - SKY CONDITION/PRESENT WEATHER               <
>     TMP    - TEMPERATURE IN FAHRENHEIT                   <
>     DP     - DEWPOINT IN FAHRENHEIT                      <
>     RH     - RELATIVE HUMIDITY IN PERCENT                <
>     WIND   - DIRECTION AND SPEED IN MPH                  <
>     PRES   - MEAN SEA LEVEL PRESSURE IN INCHES OF HG     <
>     WCI    - WIND CHILL INDEX                            <
>     VSB    - VISIBILITY IN MILES                         <
>     HX     - HEAT INDEX                                  <
>     TC     - TEMPERATURE IN CELSIUS                      <
>     VRB    - VARIABLE WIND DIRECTION                     <
>                                                          <
>>>>>>>>>>>>>>>>>>>>>>>>>>>> KEY <<<<<<<<<<<<<<<<<<<<<<<<<<<




USA.gov is the U.S. government's official web portal to all federal, state and local government web resources and services.